Location: Albany
(35.0170°S, 117.8920°E)
Time: 01:01:26
(UTC+08:00)

Explorer 7 - Pass Details

Date: 22 January 2021
Orbit: 484 x 677 km, 50.3° (Epoch: 01 March)

Event Time Altitude Azimuth Distance (km) Brightness Sun altitude
Rises 16:15:24 0° 320° (NW) 3,022 11.1 36.3°
Reaches altitude 10° 16:17:47 10° 323° (NW) 2,109 10.4 35.8°
Maximum altitude 16:22:39 65° 44° (NE) 738 7.7 34.8°
Drops below altitude 10° 16:27:23 10° 125° (SE) 2,065 9.4 33.8°
Sets 16:29:42 0° 127° (SE) 2,954 10.1 33.3°
